Location: Ambrosina
(19.9365°S, 43.9833°W)
Time: 23:57:36
(UTC+00:00)

IRIDIUM 114 - Pass Details

Date: 11 May 2021
Orbit: 776 x 779 km, 86.4° (Epoch: 20 June)

Event Time Altitude Azimuth Distance (km) Brightness Sun altitude
Rises 21:00:58 0° 177° (S) 3,279 7.4 -8.0°
Reaches altitude 10° 21:03:20 10° 175° (S) 2,346 6.6 -8.6°
Maximum altitude 21:08:34 70° 91° (E) 829 4.3 -9.7°
Drops below altitude 10° 21:13:45 10° 7° (N) 2,322 6.9 -10.9°
Sets 21:16:06 0° 5° (N) 3,244 7.7 -11.5°
